Location: Hope
(40.9110°N, 74.9680°W)
Time: 05:10:57
(UTC-05:00)

FORTE - Pass Details

Date: 09 December 2021
Orbit: 785 x 822 km, 70.0° (Epoch: 22 January)

Event Time Altitude Azimuth Distance (km) Brightness Sun altitude
Rises 03:47:03 0° 163° (SSE) 3,260 10.4 -38.0°
Reaches altitude 10° 03:50:03 10° 146° (SE) 2,339 9.8 -37.5°
Maximum altitude 03:53:45 19° 102° (ESE) 1,790 9.5 -36.8°
Drops below altitude 10° 03:57:29 10° 57° (ENE) 2,362 10.1 -36.1°
Sets 04:00:31 0° 41° (NE) 3,303 10.8 -35.5°
